Meteopurmerend
purmerend
Purmerend - Baaienwijk



My webcam  My webcam


Onweer radar Meer informatie blitzortung!


Regen radar Meer informatie rain snow radar


Bezoek onze andere website:

CandyAppleRed WebdesignWebdesign Purmerend Candy Apple Red

MeteopurmerendBlog

Template documentation
and downloads



Het weer levert geen direct gevaar op.    Er zijn geen waarschuwingen afgegeven.

15 daagse weersverwachting Hvidovre (DK)

  • Overzicht
  • Per uur
  • 15 dagen
  • Extra
  • Vergelijk
  • Kaarten
  • Dagkaart
  • Meer »
  • Info
  • Statistieken
  • Directe link
    Temp 6h Neerslag Wind  
 05:14     21:21    Daglengte: 16:07 Vandaag
14:00
19°
 
10
20:00
17°
 
10
 05:15     21:19    Daglengte: 16:04 Morgen
02:00
16°
 
8
08:00
18°
 
8
14:00
22°
 
9
20:00
20°
 
7
 05:17     21:17    Daglengte: 16:00 Zaterdag 31 Jul
02:00
17°
 
4
08:00
18°
5.9 mm
5
14:00
19°
8.6 mm
6
warningclass
20:00
18°
12.3 mm
6
 05:19     21:15    Daglengte: 15:56 Zondag 01 Aug
02:00
15°
3.3 mm
5
Locatie info
Region: Hovedstaden
Latitude: 55.6367°N
Longitude: 12.4744°E
9 masl
Postcode: 2650
Temp/Neerslag /Baro Onweer/Dauwpunt
    Temp Baro 1h Neerslag Dauwpunt Wind UV Bewolking  
 05:14     21:21    Daglengte: 16:07 Vandaag
10:00
18°
1003.7 hPa
44%
12.8°
9
Windvlaag: 13.5 m/s
17%
11:00
18°
1003.7 hPa
73%
12.7°
10
Windvlaag: 12.4 m/s
38%
12:00
18°
1003.8 hPa
81%
12.1°
10
Windvlaag: 11.3 m/s
12%
13:00
18°
1003.8 hPa
80%
11.6°
10
Windvlaag: 10.2 m/s
10%
14:00
19°
1003.8 hPa
82%
9.9°
10
Windvlaag: 10.8 m/s
13%
15:00
19°
1003.6 hPa
76%
9.8°
10
Windvlaag: 11.1 m/s
13%
16:00
19°
1003.6 hPa
81%
11.0°
10
Windvlaag: 11.3 m/s
17%
17:00
19°
1003.4 hPa
81%
11.6°
10
Windvlaag: 10.9 m/s
10%
18:00
18°
1003.2 hPa
81%
11.8°
11
Windvlaag: 10.5 m/s
13%
19:00
18°
1003.2 hPa
77%
12.4°
10
Windvlaag: 10.2 m/s
15%
20:00
17°
1003.1 hPa
36%
12.7°
10
Windvlaag: 10.2 m/s
8%
21:00
17°
1003.3 hPa
34%
12.2°
10
Windvlaag: 9.7 m/s
10%
22:00
17°
1003.5 hPa
69%
12.1°
9
Windvlaag: 9.3 m/s
29%
23:00
16°
1003.6 hPa
22%
12.0°
9
Windvlaag: 8.9 m/s
8%
 05:15     21:19    Daglengte: 16:04 Morgen
00:00
16°
1003.6 hPa
15%
11.9°
9
Windvlaag: 8.4 m/s
11%
01:00
16°
1003.4 hPa
22%
12.1°
9
Windvlaag: 8.4 m/s
11%
02:00
16°
1003.1 hPa
23%
11.7°
8
Windvlaag: 8.1 m/s
7%
03:00
16°
1002.7 hPa
26%
11.7°
8
Windvlaag: 8 m/s
12%
04:00
17°
1002.3 hPa
30%
11.4°
8
Windvlaag: 9 m/s
19%
05:00
17°
1001.7 hPa
29%
11.5°
9
Windvlaag: 9.4 m/s
51%
06:00
17°
1001.6 hPa
65%
12.0°
8
Windvlaag: 9.1 m/s
16%
07:00
17°
1001.6 hPa
67%
12.2°
8
Windvlaag: 8.1 m/s
12%
08:00
18°
1001.4 hPa
72%
12.8°
8
Windvlaag: 6.9 m/s
14%
09:00
18°
1001.5 hPa
72%
13.3°
9
Windvlaag: 6.7 m/s
11%
10:00
19°
1001.4 hPa
32%
13.6°
9
Windvlaag: 5.7 m/s
28%
11:00
20°
1001.6 hPa
68%
13.2°
9
Windvlaag: 5.4 m/s
30%
12:00
20°
1001.6 hPa
31%
14.0°
9
Windvlaag: 5.9 m/s
27%
13:00
21°
1001.5 hPa
66%
14.6°
9
Windvlaag: 5.8 m/s
13%
14:00
22°
1001.6 hPa
22%
14.6°
9
Windvlaag: 7.4 m/s
25%
15:00
22°
1001.6 hPa
27%
14.5°
9
Windvlaag: 7.3 m/s
25%
16:00
21°
1001.9 hPa
32%
14.1°
9
Windvlaag: 7.2 m/s
24%
17:00
22°
1001.9 hPa
23%
14.3°
9
Windvlaag: 6.6 m/s
11%
18:00
21°
1001.9 hPa
60%
14.0°
8
Windvlaag: 5.4 m/s
46%
19:00
21°
1002.0 hPa
23%
13.7°
8
Windvlaag: 5.6 m/s
13%
20:00
20°
1002.1 hPa
17%
13.7°
7
Windvlaag: 5.6 m/s
41%
21:00
20°
1002.2 hPa
18%
13.6°
7
Windvlaag: 5.3 m/s
20%
22:00
19°
1002.3 hPa
14%
13.4°
6
Windvlaag: 4.8 m/s
36%
23:00
18°
1002.3 hPa
14%
13.7°
5
Windvlaag: 5.2 m/s
47%
 05:17     21:17    Daglengte: 16:00 Zaterdag 31 Jul
00:00
18°
1002.0 hPa
14%
13.8°
5
Windvlaag: 5.3 m/s
32%
01:00
18°
1001.8 hPa
16%
13.7°
4
Windvlaag: 4.3 m/s
12%
02:00
17°
1001.6 hPa
19%
13.9°
4
Windvlaag: 3.5 m/s
52%
03:00
17°
1001.3 hPa
14%
14.0°
3
Windvlaag: 2.8 m/s
16%
04:00
17°
1001.1 hPa
14%
14.0°
3
Windvlaag: 4.7 m/s
72%
05:00
17°
1000.0 hPa 1.4 mm
24%
13.2°
3
Windvlaag: 6.2 m/s
72%
06:00
18°
999.6 hPa 1.5 mm
35%
13.7°
3
Windvlaag: 7.3 m/s
74%
07:00
18°
999.2 hPa 1.4 mm
90%
15.0°
5
Windvlaag: 7.3 m/s
73%
08:00
18°
998.9 hPa 1.6 mm
87%
15.5°
5
Windvlaag: 7.9 m/s
78%
09:00
19°
998.7 hPa 1.9 mm
90%
14.9°
5
Windvlaag: 8.7 m/s
69%
10:00
19°
998.6 hPa 1.6 mm
97%
14.2°
6
Windvlaag: 6.8 m/s
73%
11:00
18°
998.8 hPa 1.4 mm
100%
12.5°
6
Windvlaag: 7.3 m/s
66%
12:00
18°
998.8 hPa 1.2 mm
100%
11.6°
6
Windvlaag: 7.2 m/s
68%
13:00
18°
998.6 hPa 1.2 mm
100%
12.0°
6
Windvlaag: 6.6 m/s
44%
14:00
19°
998.7 hPa 1.4 mm
100%
14.2°
6
Windvlaag: 6.5 m/s
79% warningclass
15:00
19°
998.5 hPa 1.8 mm
100%
12.9°
6
Windvlaag: 4.4 m/s
52%
16:00
19°
998.0 hPa 1.4 mm
100%
11.4°
6
Windvlaag: 4.2 m/s
77%
17:00
19°
997.5 hPa 1.8 mm
100%
11.8°
6
Windvlaag: 5.2 m/s
49%
18:00
19°
997.9 hPa 1.5 mm
100%
12.1°
6
Windvlaag: 5 m/s
24%
19:00
19°
998.6 hPa 2.5 mm
45%
13.2°
6
Windvlaag: 4.3 m/s
57% warningclass
20:00
18°
999.2 hPa 3.3 mm
89%
13.7°
6
Windvlaag: 4 m/s
54%
21:00
18°
999.9 hPa 3.3 mm
92%
10.4°
5
Windvlaag: 3.7 m/s
13%
22:00
17°
1000.4 hPa
94%
11.4°
5
Windvlaag: 3.7 m/s
24%
23:00
16°
1000.9 hPa
83%
11.8°
5
Windvlaag: 3.3 m/s
40%
 05:19     21:15    Daglengte: 15:56 Zondag 01 Aug
00:00
16°
1001.3 hPa
31%
11.8°
5
Windvlaag: 3.4 m/s
61%
01:00
15°
1001.7 hPa
21%
12.0°
5
Windvlaag: 3.3 m/s
50%
02:00
15°
1001.8 hPa
21%
11.8°
5
Windvlaag: 3.6 m/s
30%
03:00
15°
1001.4 hPa
21%
12.5°
4
Windvlaag: 6.5 m/s
19%
04:00
15°
1001.5 hPa
21%
11.9°
4
Windvlaag: 9 m/s
26%
05:00
14°
1001.8 hPa
21%
11.6°
4
Windvlaag: 8.3 m/s
11%
06:00
14°
1002.2 hPa
21%
11.5°
4
Windvlaag: 6.8 m/s
11%
07:00
15°
1002.4 hPa
23%
11.7°
5
Windvlaag: 10.6 m/s
10%
08:00
16°
1002.7 hPa
27%
11.1°
5
Windvlaag: 10.4 m/s
9%
Temp/Neerslag /Baro Onweer/Dauwpunt
    Temp Baro Neerslag Dauwpunt Wind Bewolking  
 05:14     21:21    Daglengte: 16:07 Vandaag
11:00
18°
1003.7 hPa   12.7°
10
38%
14:00
19°
1003.8 hPa   9.9°
10
13%
17:00
19°
1003.4 hPa   11.6°
10
10%
20:00
17°
1003.1 hPa   12.7°
10
8%
23:00
16°
1003.6 hPa   12.0°
9
8%
 05:15     21:19    Daglengte: 16:04 Morgen
02:00
16°
1003.1 hPa   11.7°
8
7%
05:00
17°
1001.7 hPa   11.5°
9
51%
08:00
18°
1001.4 hPa   12.8°
8
14%
11:00
20°
1001.6 hPa   13.2°
9
30%
14:00
22°
1001.6 hPa   14.6°
9
25%
17:00
22°
1001.9 hPa   14.3°
9
11%
20:00
20°
1002.1 hPa   13.7°
7
41%
23:00
18°
1002.3 hPa   13.7°
5
47%
 05:17     21:17    Daglengte: 16:00 Zaterdag 31 Jul
02:00
17°
1001.6 hPa   13.9°
4
52%
05:00
17°
1000.0 hPa 1.4 mm 13.2°
3
72%
08:00
18°
998.9 hPa 4.5 mm 15.5°
5
78%
11:00
18°
998.8 hPa 4.9 mm 12.5°
6
66%
14:00
19°
998.7 hPa 3.7 mm 14.2°
6
79% warningclass
17:00
19°
997.5 hPa 5.0 mm 11.8°
6
49%
20:00
18°
999.2 hPa 7.4 mm 13.7°
6
54%
23:00
16°
1000.9 hPa 3.3 mm 11.8°
5
40%
 05:19     21:15    Daglengte: 15:56 Zondag 01 Aug
02:00
15°
1001.8 hPa   11.8°
5
30%
05:00
14°
1001.8 hPa   11.6°
4
11%
08:00
16°
1002.7 hPa   11.1°
5
9%
11:00
17°
1005.0 hPa 15.0 mm 7.7°
7
1%
14:00
18°
1006.2 hPa 15.0 mm 7.1°
7
1%
17:00
19°
1006.9 hPa 15.0 mm 6.2°
7
1%
20:00
18°
1007.4 hPa 15.0 mm 7.8°
6
1%
23:00
16°
1008.2 hPa 15.1 mm 8.9°
5
1%
 05:21     21:13    Daglengte: 15:52 Maandag 02 Aug
02:00
14°
1008.6 hPa 15.3 mm 10.8°
5
1%
05:00
13°
1008.9 hPa 15.3 mm 10.4°
4
0%
08:00
15°
1009.1 hPa 15.3 mm 10.1°
4
0%
11:00
19°
1009.5 hPa 15.3 mm 7.1°
5
0%
14:00
19°
1009.2 hPa 15.4 mm 7.6°
5
1%
17:00
19°
1009.2 hPa 15.5 mm 8.4°
5
1%
20:00
18°
1009.2 hPa 15.6 mm 11.3°
5
1%
23:00
16°
1010.1 hPa 15.8 mm 12.6°
4
0%
 05:23     21:11    Daglengte: 15:48 Dinsdag 03 Aug
02:00
15°
1010.7 hPa 15.8 mm 11.5°
4
0%
05:00
15°
1010.9 hPa 15.8 mm 10.9°
5
1%
08:00
15°
1011.7 hPa 15.9 mm 10.9°
4
1%
11:00
17°
1012.4 hPa 16.0 mm 9.3°
5
1%
14:00
19°
1012.1 hPa 16.0 mm 8.4°
5
1%
17:00
19°
1012.2 hPa 16.0 mm 9.0°
6
1%
20:00
18°
1012.5 hPa 16.0 mm 9.5°
6
1%
23:00
16°
1013.5 hPa 16.0 mm 10.1°
5
1%
 05:25     21:09    Daglengte: 15:44 Woensdag 04 Aug
02:00
16°
1013.8 hPa 16.0 mm 10.6°
4
1%
05:00
16°
1014.1 hPa 16.1 mm 9.8°
4
1%
08:00
16°
1015.2 hPa 16.1 mm 8.5°
4
1%
11:00
17°
1016.0 hPa 16.1 mm 7.8°
4
1%
14:00
20°
1015.6 hPa 16.1 mm 7.0°
4
1%
17:00
20°
1015.7 hPa 16.1 mm 7.4°
4
0%
20:00
19°
1015.9 hPa 16.1 mm 10.4°
5
0%
23:00
16°
1016.6 hPa 16.1 mm 10.9°
3
0%
 05:26     21:07    Daglengte: 15:41 Donderdag 05 Aug
02:00
15°
1016.8 hPa 16.1 mm 10.8°
3
0%
05:00
15°
1016.6 hPa 16.1 mm 11.7°
3
1%
08:00
16°
1016.9 hPa 32.3 mm 10.8°
3
1%
14:00
22°
1016.1 hPa 32.3 mm 5.3°
1
0%
20:00
20°
1015.3 hPa 32.3 mm 9.1°
3
0%
 05:28     21:05    Daglengte: 15:37 Vrijdag 06 Aug
02:00
16°
1016.0 hPa 32.3 mm 11.3°
2
0%
08:00
18°
1015.4 hPa 32.6 mm 12.1°
1
0%
14:00
21°
1014.8 hPa 32.6 mm 8.9°
2
0%
20:00
20°
1014.2 hPa 32.6 mm 11.0°
2
1%
 05:30     21:03    Daglengte: 15:33 Zaterdag 07 Aug
02:00
18°
1014.5 hPa 32.6 mm 11.6°
1
1%
08:00
19°
1014.4 hPa 32.6 mm 12.2°
1
1%
14:00
23°
1014.4 hPa 32.6 mm 6.6°
4
0%
20:00
20°
1013.1 hPa 32.6 mm 11.5°
5
0%
 05:32     21:00    Daglengte: 15:28 Zondag 08 Aug
02:00
18°
1011.7 hPa 32.7 mm 14.9°
7
0%
08:00
17°
1009.4 hPa 1.0 mm 13.7°
3
67%
14:00
19°
1010.5 hPa 0.8 mm 13.7°
4
66%
20:00
19°
1010.9 hPa 1.1 mm 14.0°
3
59%
 05:34     20:58    Daglengte: 15:24 Maandag 09 Aug
02:00
17°
1011.8 hPa 0.6 mm 13.7°
3
58%
08:00
17°
1011.8 hPa   13.9°
3
56%
14:00
20°
1013.0 hPa 0.4 mm 14.1°
5
69%
20:00
19°
1013.2 hPa 1.0 mm 14.1°
3
59%
 05:36     20:56    Daglengte: 15:20 Dinsdag 10 Aug
02:00
17°
1014.2 hPa 0.4 mm 13.9°
4
56%
08:00
17°
1014.1 hPa 1.6 mm 13.8°
4
57%
14:00
20°
1014.6 hPa 0.7 mm 13.8°
4
59%
20:00
19°
1014.3 hPa 0.4 mm 14.1°
4
59%
 05:38     20:54    Daglengte: 15:16 Woensdag 11 Aug
02:00
17°
1015.2 hPa 0.5 mm 13.8°
4
51%
08:00
17°
1015.4 hPa 0.4 mm 14.0°
3
58%
14:00
20°
1015.6 hPa 0.7 mm 14.1°
4
62%
20:00
19°
1015.0 hPa 0.4 mm 14.7°
3
59%
 05:40     20:52    Daglengte: 15:12 Donderdag 12 Aug
02:00
17°
1015.3 hPa 0.8 mm 14.4°
3
62%
08:00
18°
1014.9 hPa 0.4 mm 13.9°
3
59%
14:00
20°
1014.8 hPa 0.7 mm 14.0°
3
56%
20:00
19°
1014.5 hPa 0.5 mm 14.1°
2
50%
 05:42     20:49    Daglengte: 15:07 Vrijdag 13 Aug
02:00
17°
1014.7 hPa 0.2 mm 13.5°
2
51%
08:00
17°
1014.2 hPa 0.7 mm 13.7°
2
66%
  CAPE Lifted Index Hail Supercell Tornado SRH 3km CL BTM PRES CL TOP PRES Swiss DWD icon SMHI TS
 05:14     21:21    Daglengte: 16:07 Vandaag
10:00 326 J/kg 0.6 K 0 % 0 % 0 % 0 m²/s² 0 0 3.75 2
11:00 351 J/kg 0.2 K 0 % 0 % 0 % 0 m²/s² 0 0 3.35 2
12:00 360 J/kg -0.2 K 0 % 0 % 0 % 0 m²/s² 0 0 1.54 2
13:00 219 J/kg 0.7 K 0 % 0 % 0 % 0 m²/s² 0 0 1.84 2
14:00 319 J/kg -0.1 K 0 % 0 % 0 % 0 m²/s² 0 0 1.46 2
15:00 377 J/kg -1.0 K 0 % 0 % 0 % 0 m²/s² 0 0 0.68 1
16:00 360 J/kg -1.2 K 0 % 0 % 0 % 0 m²/s² 0 0 1.02 2
17:00 330 J/kg -1.4 K 0 % 0 % 0 % 0 m²/s² 0 0 0.97 2
18:00 316 J/kg -1.6 K 0 % 0 % 0 % 0 m²/s² 0 0 -0.31 2
19:00 397 J/kg -1.6 K 0 % 0 % 0 % 0 m²/s² 0 0 -0.07 2
20:00 357 J/kg -1.4 K 0 % 0 % 0 % 0 m²/s² 0 0 -0.11 2
21:00 321 J/kg -1.1 K 0 % 0 % 0 % 0 m²/s² 0 0 0.46 2
22:00 215 J/kg -0.8 K 0 % 0 % 0 % 0 m²/s² 0 0 1.45 3
23:00 66 J/kg 0.0 K 0 % 0 % 0 % 0 m²/s² 0 0 2.94 2
 05:15     21:19    Daglengte: 16:04 Morgen
00:00 42 J/kg 0.3 K 0 % 0 % 0 % 0 m²/s² 0 0 4.05 2
01:00 56 J/kg 0.0 K 0 % 0 % 0 % 0 m²/s² 0 0 4.62 2
02:00 72 J/kg -0.3 K 0 % 0 % 0 % 0 m²/s² 0 0 3.66 2
03:00 53 J/kg 0.9 K 0 % 0 % 0 % 0 m²/s² 0 0 2.37 2
04:00 12 J/kg 1.0 K 0 % 0 % 0 % 0 m²/s² 0 0 1.39 2
05:00 7 J/kg 0.0 K 0 % 0 % 0 % 0 m²/s² 0 0 0.96 2
06:00 18 J/kg 0.1 K 0 % 0 % 0 % 0 m²/s² 0 0 0.88 2
07:00 41 J/kg 0.5 K 0 % 0 % 0 % 0 m²/s² 0 0 1.28 2
08:00 95 J/kg 0.1 K 0 % 0 % 0 % 0 m²/s² 0 0 1.12 2
09:00 106 J/kg 0.2 K 0 % 0 % 0 % 0 m²/s² 0 0 1.64 1
10:00 81 J/kg 0.2 K 0 % 0 % 0 % 0 m²/s² 0 0 2.18 2
11:00 106 J/kg 0.3 K 0 % 0 % 0 % 0 m²/s² 0 0 3 2
12:00 83 J/kg 0.5 K 0 % 0 % 0 % 0 m²/s² 0 0 3.89 3
13:00 92 J/kg 0.2 K 0 % 0 % 0 % 0 m²/s² 0 0 3.41 2
14:00 90 J/kg 0.6 K 0 % 0 % 0 % 0 m²/s² 0 0 3.57 3
15:00 75 J/kg 0.8 K 0 % 0 % 0 % 0 m²/s² 0 0 4.01 3
16:00 66 J/kg 1.1 K 0 % 0 % 0 % 0 m²/s² 0 0 4.43 2
17:00 47 J/kg 1.0 K 0 % 0 % 0 % 0 m²/s² 0 0 4.69 2
18:00 33 J/kg 1.2 K 0 % 0 % 0 % 0 m²/s² 0 0 5.28 3
19:00 35 J/kg 1.2 K 0 % 0 % 0 % 0 m²/s² 0 0 4.35 2
20:00 6 J/kg 1.3 K 0 % 0 % 0 % 0 m²/s² 0 0 3.52 3
21:00 0 J/kg 1.4 K 0 % 0 % 0 % 0 m²/s² 0 0 2 2
22:00 0 J/kg 1.9 K 0 % 0 % 0 % 0 m²/s² 0 0 2.38 3
23:00 0 J/kg 2.7 K 0 % 0 % 0 % 0 m²/s² 0 0 3.6 3
 05:17     21:17    Daglengte: 16:00 Zaterdag 31 Jul
00:00 0 J/kg 2.9 K 0 % 0 % 0 % 0 m²/s² 0 0 4.73 3
01:00 0 J/kg 2.7 K 0 % 0 % 0 % 0 m²/s² 0 0 5.13 3
02:00 0 J/kg 1.7 K 0 % 0 % 0 % 0 m²/s² 0 0 3.5 3
03:00 0 J/kg 1.9 K 0 % 0 % 0 % 0 m²/s² 0 0 3.37 2
04:00 0 J/kg 0.9 K 0 % 0 % 0 % 0 m²/s² 0 0 2.46 3
05:00 0 J/kg 0.0 K 0 % 0 % 0 % 0 m²/s² 0 0 2.19 2
06:00 35 J/kg -1.7 K 0 % 0 % 0 % 0 m²/s² 0 0 -0.47 2
07:00 543 J/kg -2.3 K 0 % 0 % 0 % 0 m²/s² 0 0 -0.98 3
08:00 780 J/kg -2.9 K 0 % 0 % 0 % 0 m²/s² 0 0 -1.22 1
09:00 864 J/kg -3.2 K 0 % 0 % 0 % 0 m²/s² 0 0 -1.16 2
10:00 766 J/kg -2.9 K 0 % 0 % 0 % 0 m²/s² 0 0 -1.52 2
11:00 253 J/kg -0.8 K 0 % 0 % 0 % 0 m²/s² 0 0 0.91 3
12:00 385 J/kg -1.6 K 0 % 0 % 0 % 0 m²/s² 0 0 -0.01 80
13:00 455 J/kg -2.1 K 0 % 0 % 0 % 0 m²/s² 0 0 -1.08 80
14:00 560 J/kg -2.5 K 0 % 0 % 0 % 0 m²/s² 0 0 -2.2 80
15:00 541 J/kg -2.3 K 0 % 0 % 0 % 0 m²/s² 0 0 -1.19 80
16:00 237 J/kg -1.2 K 0 % 0 % 0 % 0 m²/s² 0 0 0.12 3
17:00 712 J/kg -2.9 K 0 % 0 % 0 % 0 m²/s² 0 0 -1.67 80
18:00 699 J/kg -2.7 K 0 % 0 % 0 % 0 m²/s² 0 0 -1.86 80
19:00 778 J/kg -3.1 K 0 % 0 % 0 % 0 m²/s² 0 0 -2.86 3
20:00 593 J/kg -2.2 K 0 % 0 % 0 % 0 m²/s² 0 0 -0.76 3
21:00 0 J/kg 1.3 K 0 % 0 % 0 % 0 m²/s² 0 0 2.44 2
22:00 0 J/kg 1.7 K 0 % 0 % 0 % 0 m²/s² 0 0 2.54 2
23:00 1 J/kg 2.5 K 0 % 0 % 0 % 0 m²/s² 0 0 4.6 2
 05:19     21:15    Daglengte: 15:56 Zondag 01 Aug
00:00 0 J/kg 3.0 K 0 % 0 % 0 % 0 m²/s² 0 0 6.27 1
01:00 2 J/kg 3.9 K 0 % 0 % 0 % 0 m²/s² 0 0 8.13 2
02:00 5 J/kg 4.2 K 0 % 0 % 0 % 0 m²/s² 0 0 8.43 2
03:00 24 J/kg 4.2 K 0 % 0 % 0 % 0 m²/s² 0 0 8.34 1
04:00 27 J/kg 4.8 K 0 % 0 % 0 % 0 m²/s² 0 0 8.82 2
05:00 19 J/kg 5.3 K 0 % 0 % 0 % 0 m²/s² 0 0 9.32 1
06:00 15 J/kg 5.6 K 0 % 0 % 0 % 0 m²/s² 0 0 9.53 2
07:00 21 J/kg 5.7 K 0 % 0 % 0 % 0 m²/s² 0 0 9.51 1
08:00 12 J/kg 5.8 K 0 % 0 % 0 % 0 m²/s² 0 0 10.15 1
Temp Baro Wind Neerslag
  EWN Forecast EWN WRFDA DWD ICON FMI HIRLAM MET Norway GFS
 05:14     21:21    Daglengte: 16:07 Vandaag
11:00 17.7° 1003.7 hPa 10.4 m/s 0.0 mm 18.4° 1003.2 hPa 9.5 m/s 0.6 mm 18.1° 1004.1 hPa 8.4 m/s -1.8 mm 17.6° 1003.4 hPa 11.4 m/s 0.0 mm 17.8° 1004.3 hPa 10.3 m/s
14:00 19.0° 1003.8 hPa 10.3 m/s 0.0 mm 18.7° 1003.4 hPa 9.8 m/s 6.2 mm 19.0° 1004.0 hPa 8.4 m/s 0.1 mm 19.7° 1003.6 hPa 11.3 m/s 0.0 mm 19.4° 1004.4 hPa 10.9 m/s
17:00 18.5° 1003.4 hPa 10.2 m/s 0.0 mm 19.2° 1002.9 hPa 10.8 m/s 9.7 mm 18.6° 1003.8 hPa 8.9 m/s 0.0 mm 18.6° 1003.3 hPa 11.2 m/s 0.0 mm 17.9° 1004.2 hPa 11.2 m/s
20:00 17.5° 1003.1 hPa 10.0 m/s 0.0 mm 17.2° 1003.0 hPa 8.3 m/s 10.7 mm 17.5° 1003.4 hPa 7.7 m/s 0.1 mm 17.8° 1003.0 hPa 13.0 m/s 0.0 mm 16.4° 1004.0 hPa 10.0 m/s
23:00 16.5° 1003.6 hPa 9.2 m/s 0.0 mm 15.9° 1003.6 hPa 7.6 m/s 10.8 mm 16.2° 1003.6 hPa 7.0 m/s 0.0 mm 17.2° 1003.6 hPa 12.3 m/s 0.0 mm 15.6° 1004.4 hPa 9.0 m/s
 05:15     21:19    Daglengte: 16:04 Morgen
02:00 16.3° 1003.1 hPa 8.2 m/s 0.0 mm 15.3° 1002.4 hPa 7.8 m/s 10.8 mm 15.9° 1003.2 hPa 6.8 m/s 0.0 mm 17.5° 1003.2 hPa 10.6 m/s 0.0 mm 15.9° 1003.6 hPa 8.7 m/s
05:00 16.6° 1001.7 hPa 8.6 m/s 0.0 mm 16.1° 1001.4 hPa 9.3 m/s 10.8 mm 16.1° 1002.2 hPa 7.2 m/s 0.0 mm 18.1° 1001.7 hPa 10.8 m/s 0.0 mm 16.4° 1001.7 hPa 10.2 m/s
08:00 17.6° 1001.4 hPa 8.4 m/s 0.0 mm 17.7° 1001.6 hPa 9.4 m/s 10.8 mm 17.4° 1001.5 hPa 6.8 m/s 0.1 mm 18.5° 1001.4 hPa 10.6 m/s 0.0 mm 17.1° 1001.6 hPa 10.6 m/s
11:00 19.6° 1001.6 hPa 9.0 m/s 0.0 mm 20.6° 1001.7 hPa 8.4 m/s 10.8 mm 20.3° 1001.5 hPa 7.7 m/s 0.1 mm 19.5° 1001.1 hPa 10.8 m/s 0.0 mm 18.9° 1001.6 hPa 10.6 m/s
14:00 21.6° 1001.6 hPa 9.4 m/s 0.0 mm 21.6° 1001.9 hPa 7.6 m/s 10.9 mm 22.1° 1001.5 hPa 8.3 m/s 0.0 mm 20.1° 1001.5 hPa 10.0 m/s 0.0 mm 21.8° 1001.7 hPa 10.9 m/s
17:00 21.5° 1001.9 hPa 8.6 m/s 0.0 mm 22.8° 1001.4 hPa 7.3 m/s 10.9 mm 21.6° 1002.1 hPa 7.6 m/s 0.0 mm 20.3° 1001.5 hPa 9.0 m/s 0.0 mm 22.0° 1002.4 hPa 9.9 m/s
20:00 20.3° 1002.1 hPa 7.4 m/s 0.0 mm 21.3° 1001.5 hPa 7.1 m/s 10.9 mm 20.2° 1003.0 hPa 6.4 m/s 0.0 mm 19.8° 1001.5 hPa 8.7 m/s 0.0 mm 20.1° 1003.4 hPa 7.7 m/s
23:00 18.3° 1002.3 hPa 5.3 m/s 0.0 mm 18.6° 1001.4 hPa 3.8 m/s 10.9 mm 18.3° 1003.5 hPa 3.9 m/s 0.0 mm 18.3° 1002.0 hPa 7.4 m/s 0.0 mm 17.5° 1004.0 hPa 5.8 m/s
 05:17     21:17    Daglengte: 16:00 Zaterdag 31 Jul
02:00 17.3° 1001.6 hPa 3.6 m/s 0.0 mm 16.7° 1000.8 hPa 3.3 m/s 10.9 mm 17.7° 1002.8 hPa 3.1 m/s 0.0 mm 17.3° 1001.5 hPa 6.6 m/s 0.0 mm 15.8° 1003.8 hPa 3.9 m/s
05:00 17.4° 1000.0 hPa 2.6 m/s 1.4 mm 16.3° 998.8 hPa 1.7 m/s 10.9 mm 18.2° 1001.5 hPa 2.4 m/s 0.0 mm 15.8° 1002.4 hPa 2.9 m/s
08:00 18.4° 998.9 hPa 4.6 m/s 4.5 mm 18.5° 997.5 hPa 4.9 m/s 10.9 mm 19.2° 1000.6 hPa 4.6 m/s 0.3 mm 17.5° 1001.2 hPa 5.4 m/s
11:00 18.4° 998.8 hPa 5.8 m/s 4.9 mm 19.0° 997.0 hPa 5.4 m/s 11.9 mm 18.6° 1000.2 hPa 5.7 m/s 0.2 mm 20.0° 1000.3 hPa 7.8 m/s
14:00 18.7° 998.7 hPa 6.1 m/s 3.7 mm 18.6° 996.6 hPa 7.0 m/s 14.2 mm 18.4° 999.4 hPa 6.1 m/s 1.4 mm 20.4° 1000.2 hPa 9.2 m/s
17:00 18.7° 997.5 hPa 5.8 m/s 5.0 mm 20.6° 996.4 hPa 6.4 m/s 17.9 mm 18.2° 997.1 hPa 5.3 m/s 2.1 mm 19.3° 999.8 hPa 8.1 m/s
20:00 18.3° 999.2 hPa 5.8 m/s 7.4 mm 19.2° 997.2 hPa 6.5 m/s 23.4 mm 18.3° 999.3 hPa 5.8 m/s 0.2 mm 16.6° 998.2 hPa 3.1 m/s
23:00 16.4° 1000.9 hPa 4.9 m/s 3.3 mm 16.3° 999.0 hPa 5.7 m/s 28.6 mm 17.0° 1000.9 hPa 4.5 m/s 0.1 mm 15.8° 999.9 hPa 6.2 m/s
 05:19     21:15    Daglengte: 15:56 Zondag 01 Aug
02:00 15.0° 1001.8 hPa 5.0 m/s 0.0 mm 14.7° 1000.2 hPa 5.3 m/s 28.6 mm 15.8° 1001.8 hPa 3.9 m/s 0.0 mm 15.0° 1001.8 hPa 6.6 m/s
05:00 14.4° 1001.8 hPa 4.4 m/s 0.0 mm 14.2° 1000.5 hPa 5.5 m/s 28.8 mm 14.5° 1002.1 hPa 4.1 m/s 0.0 mm 15.3° 1002.7 hPa 6.4 m/s
08:00 15.8° 1002.7 hPa 4.9 m/s 0.0 mm 15.3° 1000.9 hPa 7.0 m/s 29.0 mm 16.0° 1003.2 hPa 4.4 m/s 0.0 mm 16.1° 1003.7 hPa 7.2 m/s
11:00 17.0° 1005.0 hPa 7.4 m/s 15.0 mm 17.0° 1005.0 hPa 7.4 m/s 15.0 mm
14:00 18.0° 1006.2 hPa 6.8 m/s 15.0 mm 18.0° 1006.2 hPa 6.8 m/s 15.0 mm
17:00 19.1° 1006.9 hPa 6.6 m/s 15.0 mm 19.1° 1006.9 hPa 6.6 m/s 15.0 mm
20:00 17.7° 1007.4 hPa 5.6 m/s 15.0 mm 17.7° 1007.4 hPa 5.6 m/s 15.0 mm
23:00 15.9° 1008.2 hPa 5.1 m/s 15.1 mm 15.9° 1008.2 hPa 5.1 m/s 15.1 mm
 05:21     21:13    Daglengte: 15:52 Maandag 02 Aug
02:00 14.0° 1008.6 hPa 4.8 m/s 15.3 mm 14.0° 1008.6 hPa 4.8 m/s 15.3 mm
05:00 13.2° 1008.9 hPa 4.3 m/s 15.3 mm 13.2° 1008.9 hPa 4.3 m/s 15.3 mm
08:00 15.2° 1009.1 hPa 4.5 m/s 15.3 mm 15.2° 1009.1 hPa 4.5 m/s 15.3 mm
11:00 18.6° 1009.5 hPa 4.8 m/s 15.3 mm 18.6° 1009.5 hPa 4.8 m/s 15.3 mm
14:00 19.1° 1009.2 hPa 5.0 m/s 15.4 mm 19.1° 1009.2 hPa 5.0 m/s 15.4 mm
17:00 19.4° 1009.2 hPa 5.1 m/s 15.5 mm 19.4° 1009.2 hPa 5.1 m/s 15.5 mm
20:00 18.4° 1009.2 hPa 5.3 m/s 15.6 mm 18.4° 1009.2 hPa 5.3 m/s 15.6 mm
23:00 15.7° 1010.1 hPa 4.4 m/s 15.8 mm 15.7° 1010.1 hPa 4.4 m/s 15.8 mm
 05:23     21:11    Daglengte: 15:48 Dinsdag 03 Aug
02:00 14.7° 1010.7 hPa 4.4 m/s 15.8 mm 14.7° 1010.7 hPa 4.4 m/s 15.8 mm
05:00 14.6° 1010.9 hPa 4.5 m/s 15.8 mm 14.6° 1010.9 hPa 4.5 m/s 15.8 mm
08:00 15.5° 1011.7 hPa 4.4 m/s 15.9 mm 15.5° 1011.7 hPa 4.4 m/s 15.9 mm
11:00 16.8° 1012.4 hPa 4.7 m/s 16.0 mm 16.8° 1012.4 hPa 4.7 m/s 16.0 mm
14:00 18.7° 1012.1 hPa 5.2 m/s 16.0 mm 18.7° 1012.1 hPa 5.2 m/s 16.0 mm
17:00 18.7° 1012.2 hPa 6.3 m/s 16.0 mm 18.7° 1012.2 hPa 6.3 m/s 16.0 mm
20:00 17.8° 1012.5 hPa 5.5 m/s 16.0 mm 17.8° 1012.5 hPa 5.5 m/s 16.0 mm
23:00 16.4° 1013.5 hPa 5.1 m/s 16.0 mm 16.4° 1013.5 hPa 5.1 m/s 16.0 mm
 05:25     21:09    Daglengte: 15:44 Woensdag 04 Aug
02:00 16.0° 1013.8 hPa 4.4 m/s 16.0 mm 16.0° 1013.8 hPa 4.4 m/s 16.0 mm
05:00 15.6° 1014.1 hPa 3.9 m/s 16.1 mm 15.6° 1014.1 hPa 3.9 m/s 16.1 mm
08:00 16.0° 1015.2 hPa 4.2 m/s 16.1 mm 16.0° 1015.2 hPa 4.2 m/s 16.1 mm
11:00 16.6° 1016.0 hPa 4.0 m/s 16.1 mm 16.6° 1016.0 hPa 4.0 m/s 16.1 mm
14:00 20.0° 1015.6 hPa 3.5 m/s 16.1 mm 20.0° 1015.6 hPa 3.5 m/s 16.1 mm
17:00 20.4° 1015.7 hPa 4.2 m/s 16.1 mm 20.4° 1015.7 hPa 4.2 m/s 16.1 mm
20:00 18.8° 1015.9 hPa 4.5 m/s 16.1 mm 18.8° 1015.9 hPa 4.5 m/s 16.1 mm
23:00 15.8° 1016.6 hPa 3.3 m/s 16.1 mm 15.8° 1016.6 hPa 3.3 m/s 16.1 mm
 05:26     21:07    Daglengte: 15:41 Donderdag 05 Aug
02:00 15.1° 1016.8 hPa 3.3 m/s 16.1 mm 15.1° 1016.8 hPa 3.3 m/s 16.1 mm
05:00 14.6° 1016.6 hPa 3.0 m/s 16.1 mm 14.6° 1016.6 hPa 3.0 m/s 16.1 mm
08:00 16.5° 1016.9 hPa 3.2 m/s 16.2 mm 16.5° 1016.9 hPa 3.2 m/s 16.2 mm
14:00 21.5° 1016.1 hPa 1.2 m/s 16.2 mm 21.5° 1016.1 hPa 1.2 m/s 16.2 mm
20:00 20.1° 1015.3 hPa 2.7 m/s 16.2 mm 20.1° 1015.3 hPa 2.7 m/s 16.2 mm
 05:28     21:05    Daglengte: 15:37 Vrijdag 06 Aug
02:00 16.3° 1016.0 hPa 1.9 m/s 16.2 mm 16.3° 1016.0 hPa 1.9 m/s 16.2 mm
08:00 17.8° 1015.4 hPa 0.9 m/s 16.3 mm 17.8° 1015.4 hPa 0.9 m/s 16.3 mm
14:00 21.3° 1014.8 hPa 2.4 m/s 16.3 mm 21.3° 1014.8 hPa 2.4 m/s 16.3 mm
20:00 19.9° 1014.2 hPa 1.8 m/s 16.3 mm 20.0° 1014.2 hPa 1.8 m/s 16.3 mm
 05:30     21:03    Daglengte: 15:33 Zaterdag 07 Aug
02:00 18.2° 1014.5 hPa 1.0 m/s 16.3 mm 18.2° 1014.5 hPa 1.0 m/s 16.3 mm
08:00 18.9° 1014.4 hPa 0.5 m/s 16.3 mm 18.9° 1014.4 hPa 0.5 m/s 16.3 mm
14:00 22.5° 1014.4 hPa 4.1 m/s 16.3 mm 22.5° 1014.4 hPa 4.1 m/s 16.3 mm
20:00 20.2° 1013.1 hPa 4.8 m/s 16.3 mm 20.2° 1013.1 hPa 4.8 m/s 16.3 mm
 05:32     21:00    Daglengte: 15:28 Zondag 08 Aug
02:00 18.2° 1011.7 hPa 6.6 m/s 16.3 mm 18.2° 1011.7 hPa 6.6 m/s 16.3 mm
08:00 17.1° 1009.4 hPa 3.1 m/s 1.0 mm
14:00 19.5° 1010.5 hPa 4.1 m/s 0.8 mm
20:00 19.1° 1010.9 hPa 3.1 m/s 1.1 mm
 05:34     20:58    Daglengte: 15:24 Maandag 09 Aug
02:00 17.0° 1011.8 hPa 2.9 m/s 0.6 mm
08:00 17.4° 1011.8 hPa 3.4 m/s 0.0 mm
14:00 19.8° 1013.0 hPa 4.7 m/s 0.4 mm
20:00 19.0° 1013.2 hPa 3.5 m/s 1.0 mm
 05:36     20:56    Daglengte: 15:20 Dinsdag 10 Aug
02:00 16.8° 1014.2 hPa 3.6 m/s 0.4 mm
08:00 17.1° 1014.1 hPa 3.9 m/s 1.6 mm
14:00 20.0° 1014.6 hPa 3.8 m/s 0.7 mm
20:00 19.4° 1014.3 hPa 3.8 m/s 0.4 mm
 05:38     20:54    Daglengte: 15:16 Woensdag 11 Aug
02:00 17.1° 1015.2 hPa 3.5 m/s 0.5 mm
08:00 17.5° 1015.4 hPa 3.2 m/s 0.4 mm
14:00 20.1° 1015.6 hPa 3.7 m/s 0.7 mm
20:00 19.3° 1015.0 hPa 3.0 m/s 0.4 mm
 05:40     20:52    Daglengte: 15:12 Donderdag 12 Aug
02:00 17.5° 1015.3 hPa 3.2 m/s 0.8 mm
08:00 17.6° 1014.9 hPa 2.7 m/s 0.4 mm
14:00 20.4° 1014.8 hPa 3.2 m/s 0.7 mm
20:00 19.4° 1014.5 hPa 2.4 m/s 0.5 mm
 05:42     20:49    Daglengte: 15:07 Vrijdag 13 Aug
02:00 17.1° 1014.7 hPa 1.8 m/s 0.2 mm
08:00 17.4° 1014.2 hPa 2.1 m/s 0.7 mm
FMI Hirlam - 7.5 km EWN WRFDA - 12 km DWD ICON - 7 km GFS - 25 km Basiskaart






























































Updatetijd (Europe/Amsterdam) Resolutie Lengte Stap
FMI Hirlam 07:00, 13:00, 19:00, 01:00 7.5 km 49h 1h
EWN WRFDA 04:15, 10:15, 16:15, 22:15 12 km 73h 1h
DWD ICON 06:15, 12:15, 18:15, 00:15 7 km 75h 1h
GFS 08:15, 14:15, 20:15, 02:15 25 km 237h 3h
30+ mm
25-30 mm
20-25 mm
15-20 mm
10-15 mm
6-10 mm
4-6 mm
2-4 mm
1-2 mm
0.5-1 mm
0.2-0.5 mm
0.1-0.2 mm
30+ mm
25-30 mm
20-25 mm
15-20 mm
10-15 mm
6-10 mm
4-6 mm
2-4 mm
1-2 mm
0.5-1 mm
0.2-0.5 mm
0.1-0.2 mm
Sneeuwval
Natte sneeuw
Hagel
Vorst
30+ mm
25-30 mm
20-25 mm
15-20 mm
10-15 mm
6-10 mm
4-6 mm
2-4 mm
1-2 mm
0.5-1 mm
0.2-0.5 mm
0.1-0.2 mm
Sneeuwval
Natte sneeuw
Hagel
Vorst
Onweer
50 mm
40 mm
30 mm
26 mm
22 mm
18 mm
14 mm
10 mm
9 mm
8 mm
7 mm
6 mm
5 mm
4.5 mm
4 mm
3.5 mm
3 mm
2.5 mm
2 mm
1.5 mm
1 mm
0.8 mm
0.6 mm
0.4 mm
0.2 mm
0.05 mm
35°
30°
25°
20°
15°
10°
-5°
-10°
-15°
-20°
-25°
-30°
-35°
33> m/s
29 m/s
25 m/s
21 m/s
17 m/s
14 m/s
11 m/s
8 m/s
5 m/s
3 m/s
0 m/s
2600 J/kg
2400 J/kg
2200 J/kg
2000 J/kg
1800 J/kg
1600 J/kg
1400 J/kg
1200 J/kg
1000 J/kg
800 J/kg
600 J/kg
400 J/kg
200 J/kg
70 dBZ
65 dBZ
60 dBZ
55 dBZ
50 dBZ
45 dBZ
40 dBZ
35 dBZ
30 dBZ
25 dBZ
20 dBZ
15 dBZ
10 dBZ
5 dBZ
-1 K
-2 K
-3 K
-4 K
-5 K
-6 K
-7 K
-8 K
-9 K
950 m²/s²
900 m²/s²
850 m²/s²
800 m²/s²
750 m²/s²
700 m²/s²
650 m²/s²
600 m²/s²
550 m²/s²
500 m²/s²
450 m²/s²
400 m²/s²
350 m²/s²
300 m²/s²
250 m²/s²
200 m²/s²
150 m²/s²
100 m²/s²
46 m/s
44 m/s
42 m/s
40 m/s
38 m/s
36 m/s
34 m/s
32 m/s
30 m/s
28 m/s
26 m/s
24 m/s
22 m/s
20 m/s
16 m/s
12 m/s
8 m/s
4 m/s
30 m/s
28 m/s
26 m/s
24 m/s
22 m/s
20 m/s
18 m/s
16 m/s
14 m/s
12 m/s
10 m/s
8 m/s
6 m/s
4 m/s
2 m/s
3.0
2.8
2.6
2.4
2.2
2.0
1.8
1.6
1.4
1.2
1.0
0.8
0.6
0.4
0.2
15